Location: Muenchen
(48.1800°N, 11.5800°E)
Time: 22:24:17
(UTC+02:00)

Tiros 1 - Pass Details

Date: 27 June 2018
Orbit: 631 x 664 km, 48.4° (Epoch: 19 July)

Event Time Altitude Azimuth Distance (km) Brightness Sun altitude
Rises 22:13:29 0° 285° (WNW) 2,938 11.6 -7.6°
Reaches altitude 10° 22:15:51 10° 280° (W) 2,032 10.5 -7.8°
Maximum altitude 22:20:22 50° 206° (SSW) 826 7.5 -8.3°
Enters shadow 22:24:43 11° 132° (SE) 1,973 9.0 -8.8°
